This demonstration page uses our WeatherBlox Daily Observations layout. Learn more.

Left ArrowRight Arrow

38.20091, -84.87328

Hourly Observations for April 30, 2020

Temp ( °F °C ) Dew Point ( °F °C ) Humidity (%) Winds ( mph kmh ) Pressure ( in mb ) Visibility ( mi km ) Precip ( " mm )
12:53 am 00:53 Cloudy 53 11.7 49 9.4 86 86 SSW 9 15 29.69 1005 10 16 0.00 0.00
1:53 am 01:53 Cloudy 53 11.7 48 8.9 83 83 SW 9 15 29.67 1005 10 16 0.00 0.00
2:37 am 02:37 Cloudy 53 11.7 47 8.3 80 80 SW 9 15 29.66 1005 10 16 0.00 0.00
2:53 am 02:53 Cloudy 52 11.1 47 8.3 83 83 SW 13 20 29.65 1004 10 16 0.00 0.00
3:40 am 03:40 Cloudy 51 10.6 45 7.2 80 80 SW 13 20 29.67 1005 10 16 0.00 0.00
3:53 am 03:53 Cloudy 50 10 44 6.7 80 80 WSW 15 24 29.65 1004 10 16 0.00 0.00
4:03 am 04:03 Cloudy 50 10 45 7.2 83 83 WSW 8 13 29.67 1005 10 16 0.00 0.00
4:37 am 04:37 Cloudy 50 10 44 6.7 80 80 SW 14 22 29.68 1005 10 16 0.00 0.00
4:50 am 04:50 Cloudy 50 10 45 7 82 82 SW 15 24 29.68 1005 10 16 0.00 0.00
4:53 am 04:53 Cloudy 50 10 45 7.2 83 83 WSW 13 20 29.66 1005 10 16 0.00 0.00
5:53 am 05:53 Cloudy 49 9.4 46 7.8 90 90 WSW 10 17 29.67 1005 10 16 0.00 0.00
6:53 am 06:53 Cloudy 49 9.4 44 6.7 83 83 W 9 15 29.69 1005 10 16 0.00 0.00
7:10 am 07:10 Cloudy 49 9.4 44 6.7 83 83 W 10 17 29.71 1006 10 16 0.00 0.00
7:25 am 07:25 Cloudy 49 9.4 44 6.7 83 83 WSW 10 17 29.72 1006 10 16 0.00 0.00
7:36 am 07:36 Cloudy 49 9.4 43 6.1 80 80 W 10 17 29.72 1006 10 16 0.00 0.00
7:53 am 07:53 Cloudy 49 9.4 43 6.1 80 80 W 8 13 29.71 1006 10 16 0.00 0.00
8:00 am 08:00 Cloudy 49 9.4 43 6.1 80 80 W 7 11 29.72 1006 9 14 0.00 0.00
8:13 am 08:13 Cloudy with Light Rain 48 8.9 44 6.7 86 86 WSW 6 9 29.72 1007 4 6 0.00 0.00
8:24 am 08:24 Cloudy with Light Rain 48 8.9 44 6.7 86 86 W 3 6 29.73 1007 3 4 0.00 0.00
8:35 am 08:35 Cloudy with Light Rain 48 8.9 45 7.2 89 89 WSW 7 11 29.73 1007 3 4 0.01 0.25
8:51 am 08:51 Cloudy with Light Rain 48 9 45 7 87 87 W 6 9 29.73 1007 2 2 0.03 0.76
8:53 am 08:53 Cloudy with Light Rain 48 8.9 45 7.2 89 89 W 6 9 29.72 1006 2 3 0.03 0.76
9:01 am 09:01 Cloudy with Light Rain 48 8.9 45 7.2 89 89 WSW 6 9 29.73 1007 3 5 0.01 0.25
9:16 am 09:16 Cloudy with Light Rain 48 8.9 45 7.2 89 89 WSW 7 11 29.73 1007 2 3 0.02 0.51
9:24 am 09:24 Cloudy with Light Rain 49 9.4 46 7.8 90 90 W 6 9 29.73 1007 2 3 0.03 0.76
9:35 am 09:35 Cloudy with Light Rain 49 9.4 45 7.2 86 86 WSW 10 17 29.73 1007 2 3 0.04 1.02
9:38 am 09:38 Cloudy with Light Rain 49 9.4 45 7.2 86 86 SW 10 17 29.73 1007 3 5 0.04 1.02
9:53 am 09:53 Cloudy 49 9.4 46 7.8 90 90 SW 13 20 29.71 1006 8 13 0.04 1.02
10:26 am 10:26 Cloudy 50 10 46 7.8 86 86 WSW 8 13 29.73 1007 10 16 0.00 0.00
10:53 am 10:53 Cloudy 50 10 46 7.8 86 86 WSW 12 19 29.72 1007 10 16 0.00 0.00
11:44 am 11:44 Cloudy 50 10 45 7.2 83 83 WSW 10 17 29.75 1007 10 16 0.00 0.00
11:53 am 11:53 Cloudy 50 10 46 7.8 86 86 WSW 8 13 29.74 1007 10 16 0.00 0.00
12:31 pm 12:31 Cloudy with Light Rain 48 8.9 45 7.2 89 89 NW 8 13 29.77 1008 4 6 0.00 0.00
12:39 pm 12:39 Cloudy with Light Rain 48 8.9 45 7.2 89 89 Calm 29.77 1008 3 5 0.00 0.00
12:53 pm 12:53 Cloudy with Mist and Fog 49 9.4 45 7.2 86 86 W 9 15 29.76 1008 4 6 0.00 0.00
1:03 pm 13:03 Cloudy with Haze 49 9.4 44 6.7 83 83 WNW 9 15 29.77 1008 6 10 0.01 0.25
1:19 pm 13:19 Cloudy with Haze 49 9.4 44 6.7 83 83 W 8 13 29.78 1009 5 8 0.01 0.25
1:26 pm 13:26 Cloudy with Haze 49 9.4 44 6.7 83 83 W 9 15 29.77 1008 6 10 0.01 0.25
1:53 pm 13:53 Cloudy 49 9.4 44 6.7 83 83 W 8 13 29.76 1008 10 16 0.01 0.25
2:53 pm 14:53 Cloudy 51 10.6 44 6.7 77 77 W 8 13 29.77 1008 10 16 0.00 0.00
3:02 pm 15:02 Cloudy 52 11.1 44 6.7 75 75 W 16 26 29.79 1009 10 16 0.00 0.00
3:35 pm 15:35 Cloudy with Light Rain 50 10 43 6.1 77 77 W 9 15 29.80 1009 8 13 0.00 0.00
3:53 pm 15:53 Cloudy with Light Rain 50 10 44 6.7 80 80 W 6 9 29.79 1009 10 16 0.00 0.00
4:11 pm 16:11 Cloudy with Rain 49 9.4 45 7.2 86 86 WNW 7 11 29.81 1010 3 4 0.03 0.76
4:23 pm 16:23 Cloudy with Light Rain 49 9.4 45 7.2 86 86 WNW 6 9 29.81 1010 7 11 0.04 1.02
4:33 pm 16:33 Cloudy with Light Rain 49 9.4 44 6.7 83 83 W 6 9 29.82 1010 9 14 0.04 1.02
4:42 pm 16:42 Cloudy 49 9.4 44 6.7 83 83 W 7 11 29.82 1010 10 16 0.04 1.02
4:49 pm 16:49 Cloudy 48 9 45 7 87 87 WNW 6 9 29.82 1010 9 14 0.04 1.02
4:53 pm 16:53 Cloudy with Light Rain 48 8.9 44 6.7 86 86 W 8 13 29.81 1009 9 14 0.04 1.02
5:12 pm 17:12 Cloudy 49 9.4 45 7.2 86 86 W 10 17 29.82 1010 10 16 0.00 0.00
5:49 pm 17:49 Cloudy 48 9 45 7 87 87 W 8 13 29.83 1010 10 16 0.01 0.25
5:53 pm 17:53 Cloudy 49 9.4 44 6.7 83 83 W 10 17 29.82 1010 10 16 0.01 0.25
6:30 pm 18:30 Cloudy 49 9.4 44 6.7 83 83 W 7 11 29.84 1011 10 16 0.00 0.00
6:48 pm 18:48 Cloudy 48 9 43 6 82 82 W 9 15 29.84 1011 10 16 0.00 0.00
6:53 pm 18:53 Cloudy 50 10 43 6.1 77 77 WNW 9 15 29.83 1010 10 16 0.00 0.00
7:11 pm 19:11 Cloudy 49 9.4 43 6.1 80 80 W 7 11 29.84 1011 10 16 0.00 0.00
7:53 pm 19:53 Cloudy 49 9.4 42 5.6 77 77 W 9 15 29.85 1011 10 16 0.00 0.00
8:21 pm 20:21 Cloudy 49 9.4 42 5.6 77 77 WNW 8 13 29.86 1011 10 16 0.00 0.00
8:53 pm 20:53 Cloudy 49 9.4 42 5.6 77 77 W 6 9 29.86 1011 10 16 0.00 0.00
9:53 pm 21:53 Cloudy 50 10 42 5.6 74 74 W 8 13 29.87 1012 10 16 0.00 0.00
10:53 pm 22:53 Cloudy 49 9.4 41 5 74 74 WNW 3 6 29.88 1012 10 16 0.00 0.00
11:38 pm 23:38 Cloudy 49 9.4 41 5 74 74 W 6 9 29.88 1012 10 16 0.00 0.00
11:53 pm 23:53 Cloudy 49 9.4 41 5 74 74 W 6 9 29.88 1012 10 16 0.00 0.00

Powered by AerisWeather